Hillsdale, MI

3:14 AM EST on December 15, 2019 (GMT -0500)
Hillsdale Municipal

Weather History for KJYM - November, 2019

Change the Weather History Date:

Tuesday, November 12, 2019

  Actual Average Record
Temperature  
Mean Temperature 16 °F -  
Max Temperature 23 °F 46 °F 70 °F (1964)
Min Temperature 8 °F 28 °F 13 °F (1976)
Degree Days  
Heating Degree Days 50    
Moisture  
Dew Point 10 °F    
Average Humidity 78    
Maximum Humidity 90    
Minimum Humidity 54    
Precipitation  
Precipitation 0.00 in - - ()
Sea Level Pressure  
Sea Level Pressure 30.27 in    
Wind  
Wind Speed 8 mph ()    
Max Wind Speed 17 mph    
Max Gust Speed 21 mph    
Visibility 8.9 miles    
Events Snow    
Averages and records for this station are not official NWS values.
T = Trace of Precipitation, MM = Missing Value Source: Averaged Metar Reports

Daily Weather History Graph

Daily Weather History Graph

Search for Another Location

Airport or City:

Astronomy

Nov. 12, 2019 Rise Set
Actual Time 7:24 AM EST 5:20 PM EST
Civil Twilight 6:54 AM EST 5:50 PM EST
Nautical Twilight 6:20 AM EST 6:23 PM EST
Astronomical Twilight 5:47 AM EST 6:56 PM EST
Moon 5:47 PM EST (11/12) 7:13 AM EST (11/12)
Length of Visible Light 10h 55m
Length of Day
9h 56m
Full, 100% of the Moon is Illuminated
Nov 12
Full
Nov 19
Last Quarter
Nov 26
New
Dec 4
First Quarter
Dec 12
Full

Hourly Weather History & Observations

Time (EST) Temp. Windchill Dew Point Humidity Pressure Visibility Wind Dir Wind Speed Gust Speed Precip Events Conditions
12:15 AM 19.0 °F 9.0 °F 15.3 °F 85% 30.15 in 7.0 mi NW 8.1 mph - N/A Snow Light Snow
12:35 AM 18.5 °F 7.5 °F 15.4 °F 88% 30.16 in 7.0 mi NNW 9.2 mph - N/A Snow Light Snow
12:55 AM 18.0 °F 7.7 °F 14.9 °F 88% 30.16 in 10.0 mi NW 8.1 mph - N/A Snow Light Snow
12:56 AM 18.0 °F 7.7 °F 14.7 °F 87% 30.16 in 10.0 mi NW 8.1 mph - N/A Snow Light Snow
1:15 AM 18.0 °F 7.7 °F 14.9 °F 88% 30.16 in 10.0 mi NW 8.1 mph - N/A   Overcast
1:35 AM 17.4 °F 7.1 °F 14.2 °F 87% 30.16 in 10.0 mi NW 8.1 mph - N/A   Overcast
1:55 AM 18.1 °F 6.3 °F 14.9 °F 87% 30.16 in 10.0 mi NW 10.4 mph - N/A   Overcast
1:56 AM 18.1 °F 6.3 °F 14.9 °F 87% 30.16 in 10.0 mi NW 10.4 mph - N/A   Overcast
2:15 AM 17.2 °F 4.5 °F 13.5 °F 85% 30.16 in 10.0 mi NW 11.5 mph - N/A   Mostly Cloudy
2:35 AM 14.7 °F 5.9 °F 11.1 °F 86% 30.16 in 10.0 mi NW 5.8 mph - N/A   Clear
2:55 AM 14.0 °F 5.1 °F 10.8 °F 87% 30.17 in 10.0 mi NW 5.8 mph - N/A   Scattered Clouds
3:15 AM 14.0 °F 6.5 °F 10.4 °F 86% 30.17 in 7.0 mi WNW 4.6 mph - N/A Snow Light Snow
3:35 AM 13.6 °F 6.0 °F 10.4 °F 87% 30.17 in 10.0 mi WNW 4.6 mph - N/A   Overcast
3:55 AM 14.9 °F 7.5 °F 11.7 °F 87% 30.17 in 10.0 mi NNW 4.6 mph - N/A   Overcast
3:56 AM 15.1 °F 7.7 °F 11.8 °F 87% 30.17 in 10.0 mi NNW 4.6 mph - N/A   Overcast
4:15 AM 16.2 °F 10.6 °F 12.2 °F 84% 30.17 in 10.0 mi NNW 3.5 mph - N/A   Overcast
4:35 AM 16.7 °F 11.2 °F 12.2 °F 82% 30.17 in 10.0 mi WNW 3.5 mph - N/A   Overcast
4:36 AM 16.7 °F 9.6 °F 12.2 °F 82% 30.17 in 10.0 mi WNW 4.6 mph - N/A   Overcast
4:55 AM 16.7 °F 7.2 °F 12.7 °F 84% 30.18 in 5.0 mi NW 6.9 mph - N/A Snow Light Snow
4:56 AM 16.7 °F 8.3 °F 12.7 °F 84% 30.18 in 5.0 mi NW 5.8 mph - N/A Snow Light Snow
5:15 AM 17.1 °F 6.6 °F 12.9 °F 84% 30.19 in 10.0 mi NW 8.1 mph - N/A Snow Light Snow
5:35 AM 16.9 °F 4.8 °F 12.7 °F 84% 30.20 in 5.0 mi NW 10.4 mph - N/A Snow Light Snow
5:36 AM 16.7 °F 4.5 °F 12.7 °F 84% 30.20 in 5.0 mi NW 10.4 mph - N/A Snow Light Snow
5:55 AM 16.7 °F 3.8 °F 12.9 °F 85% 30.20 in 2.5 mi NW 11.5 mph - N/A Snow Light Snow
6:15 AM 16.3 °F 4.9 °F 12.7 °F 86% 30.21 in 4.0 mi NW 9.2 mph - N/A Snow Light Snow
6:35 AM 16.2 °F 4.7 °F 12.6 °F 86% 30.21 in 7.0 mi NW 9.2 mph - N/A Snow Light Snow
6:55 AM 15.6 °F 4.9 °F 12.0 °F 86% 30.22 in 10.0 mi NW 8.1 mph - N/A   Overcast
7:15 AM 14.5 °F 5.7 °F 11.3 °F 87% 30.23 in 5.0 mi NW 5.8 mph - N/A Snow Light Snow
7:35 AM 14.0 °F 3.9 °F 10.8 °F 87% 30.24 in 4.0 mi NW 6.9 mph - N/A Snow Light Snow
7:36 AM 14.0 °F 3.9 °F 10.8 °F 87% 30.24 in 4.0 mi NW 6.9 mph - N/A Snow Light Snow
7:55 AM 13.6 °F 4.6 °F 10.2 °F 86% 30.25 in 7.0 mi NW 5.8 mph - N/A Snow Light Snow
7:56 AM 13.5 °F 4.4 °F 10.0 °F 86% 30.25 in 5.0 mi NW 5.8 mph - N/A Snow Light Snow
8:15 AM 13.6 °F 3.5 °F 10.2 °F 86% 30.26 in 10.0 mi NW 6.9 mph - N/A   Scattered Clouds
8:16 AM 13.8 °F 3.7 °F 10.4 °F 86% 30.26 in 10.0 mi NW 6.9 mph - N/A   Scattered Clouds
8:35 AM 14.2 °F 4.1 °F 10.6 °F 86% 30.27 in 10.0 mi WNW 6.9 mph - N/A   Clear
8:55 AM 14.9 °F 4.0 °F 10.6 °F 83% 30.28 in 10.0 mi WNW 8.1 mph - N/A   Clear
9:15 AM 16.0 °F 2.9 °F 10.9 °F 81% 30.29 in 10.0 mi NW 11.5 mph - N/A   Scattered Clouds
9:35 AM 16.7 °F 3.2 °F 10.8 °F 77% 30.29 in 1.0 mi NNW 12.7 mph 17.3 mph N/A Snow Light Snow
9:36 AM 16.7 °F 2.6 °F 10.8 °F 77% 30.29 in 1.5 mi NNW 13.8 mph 17.3 mph N/A Snow Light Snow
9:55 AM 17.1 °F 3.6 °F 10.8 °F 76% 30.30 in 5.0 mi NW 12.7 mph - N/A   Haze
9:56 AM 17.1 °F 3.0 °F 10.8 °F 76% 30.29 in 5.0 mi NW 13.8 mph - N/A   Haze
10:15 AM 17.6 °F 5.0 °F 10.4 °F 73% 30.30 in 10.0 mi NW 11.5 mph - N/A   Clear
10:35 AM 18.5 °F 5.5 °F 10.4 °F 71% 30.30 in 10.0 mi NW 12.7 mph - N/A   Clear
10:55 AM 19.0 °F 6.8 °F 10.4 °F 69% 30.30 in 10.0 mi NW 11.5 mph 18.4 mph N/A   Scattered Clouds
11:15 AM 19.6 °F 7.4 °F 10.2 °F 67% 30.30 in 10.0 mi NW 11.5 mph - N/A   Clear
11:16 AM 19.8 °F 7.1 °F 10.2 °F 67% 30.30 in 10.0 mi NW 12.7 mph - N/A   Clear
11:35 AM 19.9 °F 6.7 °F 10.4 °F 67% 30.30 in 10.0 mi NW 13.8 mph - N/A   Clear
11:55 AM 19.9 °F 7.9 °F 9.5 °F 64% 30.30 in 10.0 mi NW 11.5 mph 18.4 mph N/A   Scattered Clouds
11:56 AM 20.1 °F 7.5 °F 9.7 °F 64% 30.30 in 10.0 mi NW 12.7 mph 18.4 mph N/A   Scattered Clouds
12:15 PM 20.1 °F 10.3 °F 9.1 °F 62% 30.30 in 10.0 mi NW 8.1 mph 16.1 mph N/A   Mostly Cloudy
12:35 PM 20.7 °F 11.9 °F 9.0 °F 61% 30.30 in 10.0 mi NNW 6.9 mph - N/A   Overcast
12:55 PM 22.3 °F 11.5 °F 9.3 °F 58% 30.29 in 10.0 mi NW 10.4 mph - N/A   Overcast
1:15 PM 22.5 °F 11.7 °F 9.3 °F 57% 30.29 in 10.0 mi WNW 10.4 mph 17.3 mph N/A   Overcast
1:16 PM 22.5 °F 11.7 °F 9.5 °F 58% 30.29 in 10.0 mi WNW 10.4 mph - N/A   Overcast
1:35 PM 21.7 °F 10.2 °F 9.0 °F 58% 30.29 in 10.0 mi West 11.5 mph 18.4 mph N/A   Mostly Cloudy
1:55 PM 21.2 °F 8.3 °F 8.2 °F 57% 30.29 in 10.0 mi NW 13.8 mph - N/A   Mostly Cloudy
1:56 PM 21.2 °F 8.3 °F 8.1 °F 57% 30.29 in 10.0 mi NW 13.8 mph - N/A   Mostly Cloudy
2:15 PM 22.1 °F 8.9 °F 9.1 °F 58% 30.29 in 10.0 mi NW 15.0 mph - N/A   Overcast
2:16 PM 22.1 °F 8.0 °F 8.8 °F 57% 30.29 in 10.0 mi NW 17.3 mph - N/A   Overcast
2:35 PM 20.7 °F 8.8 °F 8.8 °F 60% 30.30 in 7.0 mi NW 11.5 mph - N/A Snow Light Snow
2:55 PM 20.3 °F 9.8 °F 7.2 °F 57% 30.29 in 10.0 mi WNW 9.2 mph - N/A   Mostly Cloudy
3:15 PM 22.8 °F 11.5 °F 8.4 °F 54% 30.29 in 10.0 mi West 11.5 mph - N/A   Mostly Cloudy
3:16 PM 23.0 °F 11.1 °F 8.4 °F 54% 30.29 in 10.0 mi West 12.7 mph - N/A   Mostly Cloudy
3:35 PM 21.4 °F 7.5 °F 7.7 °F 56% 30.29 in 10.0 mi WNW 16.1 mph 20.7 mph N/A   Mostly Cloudy
3:55 PM 20.8 °F 10.4 °F 8.2 °F 58% 30.30 in 10.0 mi WNW 9.2 mph - N/A   Mostly Cloudy
4:16 PM 20.5 °F 8.6 °F 8.6 °F 60% 30.30 in 10.0 mi NW 11.5 mph - N/A   Overcast
4:35 PM 20.1 °F 9.5 °F 9.5 °F 63% 30.31 in 10.0 mi WNW 9.2 mph - N/A   Overcast
4:56 PM 19.8 °F 7.1 °F 9.9 °F 65% 30.31 in 10.0 mi WNW 12.7 mph 18.4 mph N/A   Overcast
5:15 PM 19.0 °F 8.2 °F 9.5 °F 66% 30.31 in 10.0 mi West 9.2 mph - N/A   Overcast
5:35 PM 19.0 °F 8.2 °F 10.2 °F 69% 30.32 in 10.0 mi West 9.2 mph - N/A   Overcast
6:15 PM 17.1 °F 7.6 °F 10.8 °F 76% 30.32 in 10.0 mi West 6.9 mph - N/A   Mostly Cloudy
6:16 PM 17.1 °F 7.6 °F 10.8 °F 76% 30.32 in 10.0 mi WNW 6.9 mph - N/A   Mostly Cloudy
6:35 PM 16.5 °F 8.1 °F 10.0 °F 76% 30.33 in 10.0 mi West 5.8 mph - N/A   Overcast
6:55 PM 14.9 °F 7.5 °F 9.9 °F 80% 30.33 in 10.0 mi West 4.6 mph - N/A   Mostly Cloudy
7:15 PM 14.9 °F 7.5 °F 10.4 °F 82% 30.34 in 10.0 mi West 4.6 mph - N/A   Clear
7:35 PM 14.4 °F 5.5 °F 9.5 °F 81% 30.34 in 10.0 mi West 5.8 mph - N/A   Clear
7:55 PM 12.7 °F 3.6 °F 8.4 °F 83% 30.34 in 10.0 mi WNW 5.8 mph - N/A   Clear
8:15 PM 11.7 °F 3.7 °F 7.9 °F 85% 30.34 in 10.0 mi WNW 4.6 mph - N/A   Clear
8:35 PM 12.7 °F 5.0 °F 9.3 °F 86% 30.34 in 10.0 mi West 4.6 mph - N/A   Scattered Clouds
8:36 PM 12.6 °F 4.8 °F 9.1 °F 86% 30.34 in 10.0 mi West 4.6 mph - N/A Snow Light Snow
8:55 PM 13.1 °F 5.4 °F 10.2 °F 88% 30.33 in 10.0 mi West 4.6 mph - N/A   Scattered Clouds
9:15 PM 12.7 °F - 10.0 °F 89% 30.34 in 10.0 mi Calm Calm - N/A   Clear
9:16 PM 12.7 °F - 10.0 °F 89% 30.34 in 10.0 mi Calm Calm - N/A   Clear
9:35 PM 10.6 °F - 8.1 °F 90% 30.33 in 10.0 mi Calm Calm - N/A   Clear
9:55 PM 8.6 °F - 5.7 °F 88% 30.33 in 7.0 mi Calm Calm - N/A   Clear
10:15 PM 11.7 °F 3.7 °F 9.0 °F 89% 30.34 in 10.0 mi WSW 4.6 mph - N/A Snow Light Snow
10:35 PM 10.9 °F 4.7 °F 8.1 °F 88% 30.34 in 10.0 mi WSW 3.5 mph - N/A   Clear
10:55 PM 9.3 °F 2.8 °F 6.4 °F 88% 30.34 in 10.0 mi WSW 3.5 mph - N/A   Clear
11:15 PM 10.9 °F - 8.1 °F 88% 30.34 in 10.0 mi Calm Calm - N/A   Clear
11:16 PM 10.9 °F 4.7 °F 8.1 °F 88% 30.34 in 10.0 mi WSW 3.5 mph - N/A   Clear
11:35 PM 10.0 °F - 7.2 °F 88% 30.33 in 10.0 mi Calm Calm - N/A   Clear
11:36 PM 10.0 °F - 7.0 °F 87% 30.33 in 10.0 mi Calm Calm - N/A   Clear
11:55 PM 10.2 °F - 7.3 °F 88% 30.33 in 10.0 mi Calm Calm - N/A   Clear